Location: Namasale
(1.5000°N, 32.6167°E)
Time: 10:16:27
(UTC+00:00)

Vanguard 1 Rocket - Pass Details

Date: 23 April 2021
Orbit: 652 x 4225 km, 34.3° (Epoch: 15 May)

Event Time Altitude Azimuth Distance (km) Brightness Sun altitude
Rises 08:54:57 0° 261° (W) 6,628 11.6 72.8°
Reaches altitude 10° 09:01:42 10° 276° (W) 4,843 11.1 74.0°
Maximum altitude 09:09:50 20° 317° (NW) 3,107 10.4 75.4°
Drops below altitude 10° 09:15:21 10° 2° (N) 3,109 10.5 76.2°
Sets 09:18:28 0° 21° (NNE) 3,692 10.7 76.7°
